FALCON 9 DEB (46800 NORAD) Tracking and Keplerian Element Data
This shows tracking and keplerian element data for the satellite.
Feedback or suggestion? Click here.
Element | Value |
Catalog | 46800 |
Name | FALCON 9 DEB |
Epoch Orbit | 505 |
Epoch Day | 327.10943687 |
Epoch Year | 2020 |
RAAN | 13.9585 |
Inclination | 53.0423 |
Eccentricity | 0.0002535 |
Argument of Perigee | 7.311 |
Mean Anonmoly | 352.7975 |
Mean Motion | 16.45306624 |
Decay Rate | 0.09846606 |
L1 | 1 46800U 20074BP 20327.10943687 .09846606 12551-4 28852-3 0 9998 |
L2 | 2 46800 53.0423 13.9585 0002535 7.3110 352.7975 16.45306624 5050 |
Live tracking and technical data element details for FALCON 9 DEB (NORAD 46800). FALCON 9 DEB can be tracked NOW for your location showing map with azimuth and elevation plus other details from your city location.
Track the satellite on the map from your city or location and see movement details for azimuth, elevation, latitude, longitude, range, height, and movement on the map or in text.
IsCatalogInMostPopularTable: catalog: 46800, numindb: 27
Update: records affected: 1
GetName: 46800 FALCON 9 DEB
Hit Count: updated at: Mon, 18 Jan 2021 16:08:43 GMT